Location: Oak Glen
(34.0495°N, 116.9470°E)
Time: 09:55:51
(UTC-07:00)

Vanguard 1 - Pass Details

Date: 25 June 2018
Orbit: 650 x 3833 km, 34.2° (Epoch: 20 September)

Event Time Altitude Azimuth Distance (km) Brightness Sun altitude
Rises 15:03:14 0° 255° (WSW) 4,098 12.6 10.6°
Reaches altitude 10° 15:05:28 10° 255° (WSW) 3,397 12.2 11.0°
Maximum altitude 15:14:27 85° 168° (SSE) 2,032 11.9 12.7°
Drops below altitude 10° 15:31:54 10° 82° (E) 6,133 16.4 16.2°
Sets 15:37:33 0° 83° (E) 7,517 16.2 17.3°
